차종별기사보기
차종별 기사검색 close
  • 자유게시판
  • 무엇이든 물어보세요
  • 자동차 정보/토론
  • 시승요청
번호 제목 글쓴이 날짜 조회 수
공지 [공지] 몇가지 이야기 드립니다. 14 file anonymous 18-04-23 192
공지 모터그래프 스티커 신청방법! 30 update MG만승 18-03-12 589
공지 ♥ 카디네이터 신청 방법 ♥ 13 file 키뮤 18-02-28 2172
공지 모터그래프 커뮤니티 운영정책 안내 17 anonymous 17-11-14 2047
공지 (2017.11.14 추가) 모바일용 월페이퍼 다운받아서 배경-잠금화면으로 사용해보세요~!! 73 file MG다혜 17-05-10 39246
7970 19MY 쏘나타 뉴라이즈 1.6 터보 탑승기 (차기 모델을 기다리며...) 1 newfile anonymous 4 시간 전 27
7969 RAM 1500 반반에디션? 7 newfile 제네시스G70 5 시간 전 42
7968 T맵 안전 운전 점수 2 newfile 호떡왕 7 시간 전 51
7967 시험기간인 학생들을 위해 응원메세지~!! 10 new CELEBRITY 9 시간 전 52
7966 2세대 k9 영업용 1호차 발견 13 newfile 이토준 10 시간 전 146
7965 문서우 기자에게 쓴 편지 12 newfile 이토준 19 시간 전 158
7964 생존 신고합니다!! (feat.좀 특별한 SM7) 17 updatefile D.A.J 18-04-24 288
7963 뒤늦은 718 GTS 행사 후기 4 updatefile 드림카 18-04-24 296
7962 호랑이코 그릴을 따라한 BMW? (Feat. 캡쳐 이미지) 12 updatefile Supreme 18-04-24 796
7961 5년동안 짝사랑하는 그녀에게 14 updatefile 여유주 18-04-24 634
7960 [번개후기]본격 사행성 조장 포스팅 14 file 이토준 18-04-24 515
7959 8개월된 크루즈 팔고 말리부 샀네요 7 file 제네시스G70 18-04-24 653
7958 일요일 CJ슈퍼레이스에서 있었던 황당한 사건 12 updatefile anonymous 18-04-24 716
7957 슈퍼레이스 1전 사진방출 18 updatefile wook9710 18-04-24 640
7956 초심불망(初心不忘) 7 updatefile 레드불 18-04-24 674
7955 행사/이벤트 게시판을 운영해주실 분을 찾습니다. 8 file MG 18-04-24 833
7954 우리 모그커뮤니티에 사람냄새가 나네요 ^^ 10 file 718bboxster 18-04-23 816
7953 모터그래프는 영어 리뷰를 시작해야 합니다. 6 헤에취 18-04-23 1106
7952 생일 축하합니다 20 file 이토준 18-04-23 851
7951 2년만의 만남과 지금 9 updatefile 이토준 18-04-23 868
번호 제목 글쓴이 날짜 조회 수
1077 Dc콤보 완속충전 new lm0207 5 시간 전 5
1076 레이를 위한 서스펜션 (오직 승차감) 추천 부탁드립니다. new 꼬마벰베 9 시간 전 13
1075 현대기아 순정오일 gdi대응 하는 오일은 언제 어떻게 되는지 궁금합니다 블랙깜깜 18-04-24 591
1074 여쭤 볼게 있어요3 12 file 내닉네임은TREAFLO 18-04-22 1498
1073 컴퓨터 글이 안 올라갑니다 5 file 이토준 18-04-20 2328
1072 718 gts 행사 당첨되신 분들께 질문있습니다.. 4 햇빛광장 18-04-19 2859
1071 자동차 시승 기자를 하고 싶습니다. 2 자사람 18-04-18 3168
1070 혹시 기어봉 튜닝하신분 있으실까요 7 J.K 18-04-18 3513
1069 여러분 갑자기 깜빡이 없이 훅 들어와서 사고 날뻔한적이 있으면 어떡해 해야할까요? 26 CELEBRITY 18-04-18 3498
1068 아반떼ad 페이스리프트? 이 차 뭔지 아시는분요~ 8 file 최진영 18-04-16 5055
1067 Q60s 렌탈하는 곳이 있을까요? 4 꼬마벰베 18-04-15 4635
1066 스팅어는 쿠'페' 로 나올까요? 4 이탈리안푸드 18-04-14 5321
1065 모그스티커와 저는 인연이 없나요? 11 718bboxster 18-04-14 5320
1064 기아 K9 코드명 RJ1 or RJ 5 뿜뿌e 18-04-14 5480
1063 차가 이상한건지.. 3 차가좋은남 18-04-10 6840
1062 카뮤니티 이번주 건 안 올라오나요? 9 nana 18-04-09 6903
1061 여쭤 볼게 있어요 2 20 내닉네임은TREAFLO 18-04-09 6980
1060 운전면허에 대해 물어 볼게있습니다! 7 Easytronic 18-04-07 7747
1059 패밀리세단 5 Ryan 18-04-05 8367
1058 신경쓰이는 삐걱소리 뭘까요?? 김한용 기자님 도와주세요!! 1 자동차덕후고딩4804 18-04-05 8888
1057 커뮤니티 보던중 김한용기자님께 질문하나 드립니다. 10 단평 18-04-03 10050
1056 이차는 무슨차일까요? 위장막차량 가져왔어요 8 file 모그짱 18-04-02 10888
1055 제네시스 g80 질문입니다 12 김의서 18-04-01 10624
1054 고프로 어떤걸로 사야할까요.. 23 file wook9710 18-03-31 11050
1053 신차인 듯 한데 어느 나라 차일까요?? 20 file AngelicDiablo 18-03-29 12680
번호 제목 글쓴이 날짜 조회 수
310 [기아자동차] 전국 4년제 대학생, 휴학생 모그러분들 기회가 왔습니다. 2 updatefile 이토준 18-04-24 298
309 자동차 시승 후 생각나는 詩(ft.Audi A6) 7 updatefile 이토준 18-04-22 1268
308 제가 제일 좋아하는 슈퍼카 vs 제가 제일 싫어하느 스포츠카들의 대결입니다. 2 머시안 18-04-20 2305
307 2019 KIA SEDONA Youtube에 나왔네요.. 1 공업용미싱 18-04-18 3136
306 보급형 전기차의 조건 11 file SQTeam 18-03-28 12394
305 여러분은 친환경자동차에 대해 어떻게 생각하시나요? 11 file CELEBRITY 18-03-28 12417
304 [번역]TOYOTA GAZOO Racing의 뜻을 찾아서 7 file 이토준 18-03-22 15311
303 두둥 오늘부터 19일까지 기아자동차 인턴 채용 8 file 이토준 18-03-05 23489
302 정비소랑 친해지다#2 비후다 그리고 새해인사 12 file 이토준 18-02-14 32553
301 [알아보자#5] 스트럿 이야기 15 file 이토준 18-01-17 46245
300 [알아보자#4] 타이어와 차량의 운동 관계 #1 15 file 이토준 18-01-15 47421
299 [알아보자#3] 캡 포워드(Cab Forward) 8 file 이토준 18-01-10 49709
298 [현대자동차 이벤트] 중학생 회원분들 부러워요 20 file 이토준 17-12-20 59975
297 신형 벨로스터 정확한 사양 2 file 이토준 17-12-18 61167
296 포르쉐 모델에 붙는 접미어, 조금 알아봅시다. 8 file 이토준 17-12-07 66407
295 포르쉐를 향한 외로운 투쟁 (feat.前 type7 後) 4 file 이토준 17-12-06 66603
294 Porsche 356 모델 정리(스압주의) 10 file 이토준 17-12-05 67192
293 2018년형 AMG GT 움직입니다 6 file 이토준 17-11-30 69948
292 Astonmartin vs Jaguar 16 file 이토준 17-11-24 72656
291 블랙박스에 대한 고충 12 아스티카 17-11-22 73334
290 장애인 전용 주차 구역 누가 사용할 수 있을까요? 6 file 이토준 17-11-16 75937
289 메르세데스-벤츠 C-Class 페이스리프트 관련 정보 file SVR 17-11-14 76314
288 BMW M2 CSL 뉘르부르크링서 포착 3 file SVR 17-11-14 74820
287 원오프 맥라렌 720S, 두바이 모터쇼서 공개 4 file SVR 17-11-14 71584
286 재규어 F-Pace SVR 스파이샷 3 SVR 17-11-14 64851
번호 제목 글쓴이 날짜 조회 수
295 투싼,스포티지 비교 시승기 부탁 드려요. 홍삼 18-04-19 26
294 비교시승 가능할까요??? 드림카 18-04-06 66
293 안녕하세요 르노에서 곧 나올 가능성이 있을 것으로 예상되는 메간세단 시승 부탁드려도 될까요? 1 취준생CAR 18-03-30 178
292 미니쿠퍼 컨버터블 시승해주세요^^ 1 아인파더 18-03-16 88
291 신형 벨로스터 시승기 부탁드립니다. 1 keah1205 18-03-14 100
290 르노삼성 QM3 시승 부탁드립니다. 출시된지는 좀 된것 같은데 아직도 미디어 시승회가 없다는게 이상하네요 머시안 18-03-04 94
289 TOYOTA C-HR G-T 2 KAKU 18-01-24 194
288 I30 1.4 에 대한 리뷰를 보고싶습니다. 4 Vo 18-01-14 216
287 부탁드릴거요 4 내닉네임은TREAFLO 18-01-03 267
286 자동차에대해 전문적인 지식으로 시승기를 해보고싶습니다 2 오랑이 17-12-22 245
285 시승기 하실때 Suv 차량이나 트렁크 공간 자세하게 리뷰해주세요! 1 홍삼 17-12-15 187
284 안녕하세요 시승 요청드립니다! 1 빛솔연꽃 17-11-28 195
283 기자님들 시승 부탁드려요 file 드림카는페라리 17-11-14 250
282 2017 기블리 시승요청합니다! 4 티블리airq4 17-11-05 289
281 니로 내구성관련 재시승 요청합니다. 니롱 17-11-03 198
280 한국 웨건 시승 부탁드립니다! 1 ㅜㄹ토 17-10-24 252
279 아베오 시승 요청 드립니다. 8 구름9 17-10-19 714
278 BMW 118d 시승 부탁드립니다. 1 Don 17-10-19 334
277 김한용 기자님 벤츠 GLA 2018 시승 요청 드립니다~ 시스템 17-10-18 220
276 시승부탁드립니다. file 드림카는페라리 17-10-11 222
275 아이오닉 일렉트릭 시승 부탁드립니다. 1 권민썽 17-10-07 443
274 캠리시승기요청(feat.풀체인지) file 트카둥이 17-09-19 302
273 시승기요청! 1 file 이놔뇽 17-09-14 276
272 르노삼성 트위지 해주세요! 1 wook9710 17-09-11 585
271 혹시 모터그래프에서 이차량도 보여주실수있나요?? 천신 17-09-06 389
게시판